Theta_e
284 284 285 286 286 284 284 283 283 283 282 281 281 280 282 281 276 274 282 281 281 282 284 286 286 287 289 291 292 292 295 294 295 295 296 296 297 297 298 299 299 299 299 299 299 298 298 298 298 298 298 297 298 297 298 298 300 301 305 309 308 308 308 308 307 308 308 308 310 310 311 310 309 309 310 312 312 311 310 309 309 310 310 311 311 311 311
284 284 285 286 285 284 283 283 282 283 281 281 281 281 280 280 279 279 281 281 279 284 284 286 287 288 290 290 291 291 291 290 293 293 293 295 295 296 297 297 298 298 298 297 296 296 296 296 296 297 296 297 297 298 297 297 298 299 302 303 304 301 303 303 302 305 307 307 308 309 309 309 310 309 310 309 309 309 309 308 308 308 309 310 311 311 311
283 285 285 284 284 284 282 283 283 282 282 282 281 280 281 281 281 280 281 281 280 284 286 286 288 288 289 291 290 290 290 291 292 291 291 293 295 295 295 295 294 294 295 295 295 295 295 295 295 295 295 294 295 296 297 297 297 296 298 297 297 296 297 297 297 298 302 302 302 304 305 305 305 306 306 306 307 307 307 307 307 308 308 308 308 309 310
280 283 282 282 283 283 282 282 283 282 281 279 281 279 281 279 279 280 281 279 277 284 286 286 287 288 288 287 289 290 291 292 292 291 291 291 294 295 295 295 295 295 294 294 294 295 295 295 295 295 294 294 295 295 294 296 296 296 296 296 295 295 296 296 297 296 296 296 297 298 299 299 299 300 302 304 305 306 305 306 306 305 305 307 306 305 306
274 280 281 281 279 279 278 275 279 282 282 282 282 282 283 282 280 276 276 277 281 282 286 285 286 286 287 287 287 288 291 291 292 292 292 293 294 294 295 296 295 295 294 294 294 294 294 295 296 296 295 295 295 295 295 296 296 296 295 294 294 295 295 296 295 296 295 296 297 297 298 298 298 298 299 299 298 299 298 301 303 304 302 302 303 303 304
271 279 278 278 277 270 269 279 284 285 282 282 280 279 281 282 282 281 281 282 283 283 284 284 284 285 286 286 287 288 288 289 291 293 293 294 294 295 296 297 297 297 297 296 296 294 294 295 296 296 296 296 296 297 297 296 296 294 295 294 294 294 295 295 295 295 295 295 296 296 296 297 296 296 297 298 298 298 298 298 298 298 298 299 298 299 300
274 273 276 273 267 268 282 284 285 286 285 283 281 281 282 282 283 283 283 283 283 284 284 285 285 286 287 288 288 288 289 289 290 290 292 293 294 294 295 296 297 297 297 297 296 296 296 297 296 296 296 295 295 295 295 295 294 295 293 294 294 294 294 295 294 294 295 294 295 295 295 295 295 295 295 295 296 296 295 297 297 299 297 297 296 296 294
272 270 266 266 264 278 283 283 284 287 284 282 283 281 282 282 282 282 281 282 283 283 284 285 286 286 287 287 288 288 289 289 289 289 289 290 292 293 295 296 297 298 299 299 299 298 300 299 298 298 297 296 296 294 293 294 294 294 294 294 294 294 295 294 295 295 295 295 294 294 295 294 295 295 294 294 295 294 294 292 293 293 293 293 292 292 292
271 268 268 268 278 279 281 279 281 281 280 281 277 274 277 282 282 282 281 281 282 283 283 284 283 284 284 285 286 288 288 288 289 289 289 290 291 291 292 296 299 299 300 300 301 300 300 302 301 300 298 297 294 294 294 293 294 294 295 294 294 295 295 295 296 295 296 296 296 295 294 295 295 295 295 296 294 294 295 293 292 293 291 291 291 290 290
271 270 267 269 269 267 273 278 283 285 285 284 281 278 276 282 282 282 281 280 281 282 283 283 283 284 283 281 281 286 288 288 289 289 289 290 290 290 291 292 292 293 295 298 299 298 299 300 300 299 299 298 296 295 294 294 294 295 297 296 295 295 296 297 297 296 295 295 296 295 294 295 295 294 293 293 293 293 295 295 294 292 290 289 288 289 288
272 270 267 265 265 266 268 277 282 285 284 284 282 277 275 281 281 282 281 281 281 281 281 282 283 281 278 279 281 286 287 288 288 288 288 288 288 289 289 290 290 291 292 294 295 296 297 299 299 298 298 297 297 296 296 296 295 294 296 297 299 297 297 297 298 296 295 294 293 293 294 295 294 296 295 296 294 292 291 291 291 290 291 288 287 287 287
273 271 270 269 268 269 279 280 283 284 284 285 280 270 269 281 282 283 282 282 281 282 283 283 283 281 277 280 283 287 288 288 288 287 287 287 288 288 288 289 289 290 291 291 292 292 291 291 292 295 296 298 298 297 298 298 296 296 296 297 298 296 296 297 298 297 296 296 294 293 294 293 292 294 294 293 292 291 289 289 290 289 289 287 286 286 285
275 275 270 274 277 281 283 283 284 285 286 284 274 268 273 282 282 283 282 282 283 283 282 282 280 283 286 286 287 288 288 288 288 288 287 287 287 287 287 288 292 288 288 288 288 288 289 290 289 290 292 294 295 296 295 294 294 297 299 299 296 296 296 296 296 296 296 296 295 294 294 294 293 293 292 293 291 291 289 289 288 287 287 286 286 285 284
273 273 273 274 276 281 284 285 285 283 282 275 272 280 283 282 282 283 282 282 283 283 283 282 282 283 284 287 287 287 287 286 286 288 289 289 290 289 290 291 290 288 288 288 289 289 290 290 290 290 291 291 292 290 290 291 293 294 293 293 292 292 291 292 293 294 294 293 294 295 293 293 292 292 291 291 291 289 289 288 287 286 286 285 284 284 284
274 273 274 273 270 280 285 285 283 284 277 278 284 284 284 284 282 282 283 283 283 282 282 282 282 281 282 282 284 284 286 287 288 288 289 288 289 288 289 289 290 289 288 288 288 288 290 290 290 290 290 289 289 289 289 291 292 291 291 291 291 291 292 292 293 292 292 292 293 295 295 293 293 293 291 290 290 289 288 287 287 286 285 284 284 284 284
272 272 271 272 278 281 285 284 277 282 283 285 286 285 283 285 284 283 282 282 283 283 284 284 284 285 285 284 284 285 286 288 288 288 288 287 287 287 288 287 287 289 287 288 288 288 290 291 291 291 289 289 289 289 289 291 290 291 291 291 291 292 292 292 291 292 293 293 293 293 294 293 292 291 290 289 290 292 288 289 287 286 284 284 284 284 285
276 275 277 281 284 284 285 285 284 285 286 286 287 286 284 284 284 284 282 284 285 286 287 286 286 286 287 286 286 285 286 286 287 287 288 288 287 287 287 288 289 289 288 287 287 288 288 289 290 291 291 290 290 289 290 292 292 293 293 293 292 292 291 291 291 291 291 291 291 290 291 291 291 290 290 290 292 288 289 288 288 288 286 286 286 286 283
281 282 282 284 284 285 283 284 285 284 285 285 285 284 283 284 284 284 284 285 284 285 286 285 285 286 286 285 286 287 286 286 286 287 287 287 287 286 286 286 287 288 287 287 287 287 288 288 289 290 290 289 291 292 293 294 294 293 293 293 292 291 290 290 291 290 291 291 289 289 289 289 290 289 291 290 292 287 288 287 288 289 287 286 286 285 285
274 271 279 279 280 282 284 284 285 286 286 286 285 285 284 284 284 284 284 283 283 284 283 284 283 284 284 283 284 284 284 285 285 286 286 285 285 285 286 287 288 287 287 287 288 288 288 288 288 289 289 290 290 291 292 292 292 292 292 292 293 292 292 291 289 289 289 290 289 288 287 289 289 289 289 289 289 289 288 289 287 287 288 287 286 285 284
269 271 278 280 281 282 282 282 283 284 285 286 287 286 286 285 285 284 284 283 283 282 282 282 281 281 281 280 282 282 283 284 284 284 285 285 285 287 287 287 288 288 288 287 287 288 288 289 289 289 290 290 291 291 291 291 290 291 292 292 293 292 292 290 289 287 288 288 289 288 287 286 288 288 286 286 289 290 289 288 288 286 287 286 287 286 284
278 278 279 280 281 281 282 283 283 283 284 284 284 283 283 283 283 282 282 283 283 282 282 281 281 281 281 282 282 283 283 284 284 285 285 285 285 286 286 287 288 288 288 289 289 288 289 289 289 289 290 291 291 290 291 291 289 291 292 291 289 289 288 287 287 287 286 287 286 286 285 283 281 283 286 287 289 290 287 289 293 292 289 289 289 289 288
268 273 278 281 275 274 279 281 283 283 284 283 283 281 282 282 282 282 281 282 282 282 282 282 281 280 280 282 282 282 283 283 284 284 285 285 285 285 285 287 286 287 288 288 288 288 289 289 289 289 289 290 291 291 291 290 289 290 289 287 287 286 285 285 285 286 286 286 286 286 285 285 284 284 284 287 284 286 288 290 290 291 291 291 291 290 288
267 274 278 279 278 279 280 282 283 283 283 282 282 282 282 283 282 282 281 281 280 281 281 282 281 280 281 282 282 282 282 283 283 284 284 284 284 284 285 285 285 285 286 288 288 287 288 289 289 289 289 290 291 291 291 290 290 290 289 288 287 285 285 285 286 286 285 285 284 284 284 285 284 286 285 283 287 287 287 288 288 289 290 290 291 290 290
277 278 278 280 280 279 281 282 282 283 283 283 283 282 282 282 282 281 281 281 280 280 280 281 282 281 281 282 282 281 282 283 283 283 284 284 284 285 285 284 284 284 285 286 286 287 288 288 288 288 289 289 290 290 289 288 287 289 288 289 287 286 287 286 285 284 284 284 284 284 284 284 285 284 285 286 284 286 287 287 288 289 289 290 290 289 289
279 282 281 281 281 281 281 282 283 283 286 284 282 282 282 282 282 282 281 281 281 281 280 280 280 281 281 281 281 281 281 282 283 284 284 285 284 284 284 284 284 284 284 285 287 288 287 287 287 287 287 289 290 290 288 287 286 286 286 286 286 285 285 283 284 284 283 283 284 283 284 284 284 284 284 283 285 283 284 287 287 288 289 289 289 289 288
282 282 282 282 282 282 281 282 282 281 282 282 282 282 284 287 285 283 281 281 281 280 280 280 280 281 281 281 281 282 281 282 283 284 283 283 283 283 283 283 284 284 284 285 286 288 286 285 285 286 286 287 289 290 288 287 286 287 285 284 284 284 284 283 283 283 282 283 283 284 287 288 288 287 285 285 284 283 283 283 285 287 287 288 288 288 288
283 282 282 282 281 280 279 282 280 281 281 281 281 281 281 280 284 283 282 282 282 281 280 280 280 281 281 281 282 282 282 283 284 284 284 284 283 283 284 285 285 285 284 285 286 286 286 285 285 285 285 287 288 289 289 289 287 285 284 284 282 284 284 284 283 284 282 282 282 283 284 287 289 289 289 287 286 286 286 286 286 285 285 285 286 287 287
282 281 280 278 276 279 280 282 282 281 281 281 281 282 282 280 280 280 280 280 280 280 280 280 280 280 280 281 281 282 283 283 282 283 283 283 284 285 285 286 286 286 286 287 287 287 285 285 284 284 285 286 287 288 289 287 286 285 284 283 282 282 283 283 282 282 282 282 283 283 283 285 289 289 288 287 287 287 286 287 286 285 285 285 285 286 287
282 282 282 281 280 279 281 283 283 283 284 285 285 282 281 280 280 280 279 279 280 280 280 280 280 280 280 281 282 283 283 282 282 282 283 284 284 284 284 284 285 285 285 285 285 285 285 284 283 283 284 286 287 287 288 287 286 285 284 283 282 282 283 283 283 283 282 282 282 283 284 285 287 288 287 287 287 287 286 286 285 285 285 285 285 285 286
281 281 281 282 281 282 283 282 282 282 283 283 281 280 280 280 279 278 279 279 279 280 281 280 280 280 280 280 282 283 283 282 282 283 283 283 283 283 283 284 284 284 284 284 284 284 284 283 283 283 284 286 287 287 288 286 285 284 284 283 281 283 284 284 284 285 285 286 285 285 286 287 288 287 287 287 287 286 286 285 285 285 285 285 285 284 284
280 281 281 281 281 281 281 281 280 281 283 283 280 280 280 279 279 278 279 279 279 279 280 280 280 280 280 280 281 283 284 283 283 282 282 282 282 283 283 283 282 281 282 283 284 284 284 284 283 283 284 285 286 286 288 288 287 285 284 283 283 284 285 286 287 288 289 287 287 287 286 286 286 286 286 286 286 286 286 285 285 285 285 285 285 284 284
280 281 281 281 281 280 281 281 281 283 284 282 280 279 279 279 279 279 279 279 279 279 280 280 280 280 280 280 282 283 283 282 281 281 281 282 282 283 283 283 283 283 283 283 284 285 285 285 284 284 283 285 286 287 289 290 288 288 286 285 284 285 285 286 287 288 287 286 287 287 286 286 286 286 285 285 285 285 285 285 285 285 285 285 284 284 284
280 280 280 280 281 281 281 282 282 283 282 280 277 279 279 279 279 280 280 280 280 280 280 280 280 280 280 280 281 282 281 281 281 281 281 282 282 283 283 283 283 283 283 284 284 285 285 285 285 283 283 285 287 289 291 292 291 289 287 286 286 287 287 288 288 290 289 287 287 287 287 286 286 286 285 285 285 285 285 285 285 284 284 284 284 284 284
281 280 280 280 282 281 280 281 281 281 280 280 279 279 279 280 278 280 280 280 280 280 280 280 281 281 280 279 279 280 280 280 280 280 281 281 282 282 283 283 284 284 284 285 285 285 285 286 285 283 283 285 288 289 292 293 291 290 290 289 289 288 288 288 288 289 288 287 286 286 286 286 287 286 285 285 285 285 285 284 285 284 284 284 284 283 284
280 281 280 281 280 280 281 282 282 281 281 280 280 280 279 278 279 280 280 280 280 282 282 281 281 281 280 279 279 279 279 279 279 280 280 281 281 282 283 283 283 284 285 285 285 285 286 287 287 286 285 286 288 291 294 292 292 291 290 290 290 290 289 289 289 288 287 287 286 287 286 286 286 286 286 286 286 285 285 285 284 284 284 284 283 283 284
282 283 283 282 281 282 282 281 282 281 281 279 280 279 277 279 279 279 279 280 282 282 281 280 280 279 279 279 279 279 279 279 280 280 280 281 281 282 282 282 282 283 283 284 285 285 286 288 286 286 286 287 290 294 293 291 291 291 290 290 290 290 289 289 288 288 287 287 286 286 286 285 286 286 286 286 286 285 285 284 284 284 284 284 283 283 282
282 283 282 281 281 281 281 281 281 280 280 280 280 279 280 280 280 280 280 281 282 282 281 279 278 278 278 279 280 280 280 280 280 280 280 281 282 282 282 281 281 281 282 282 284 285 286 286 285 285 287 290 292 292 290 288 291 290 290 290 290 290 289 290 290 289 288 286 286 286 286 286 286 286 285 286 285 284 284 284 284 284 284 283 283 283 283
281 282 281 282 281 281 281 281 280 280 279 280 279 280 280 280 281 280 281 281 281 279 279 277 277 277 278 279 280 280 279 280 280 280 281 281 281 282 281 281 280 281 281 281 284 285 286 287 287 288 291 291 291 290 289 288 288 290 290 289 289 289 288 288 288 288 287 287 286 286 286 285 285 285 284 285 284 284 284 284 284 283 283 283 282 282 281
282 281 281 280 281 281 281 281 280 280 280 281 281 280 280 280 280 279 280 280 278 278 277 277 277 276 278 280 280 279 279 279 280 280 280 281 282 281 281 281 281 282 282 284 285 285 286 287 288 289 290 290 291 291 288 287 288 290 289 289 289 287 287 287 287 286 286 286 285 285 285 284 284 283 283 283 283 283 283 283 283 283 282 282 281 281 281
281 281 282 281 281 281 280 280 279 278 278 279 280 281 280 279 278 278 278 278 279 279 279 278 278 278 278 279 279 279 279 279 279 280 280 281 281 281 282 282 282 283 284 285 285 285 286 286 287 288 288 289 289 289 288 288 288 289 289 288 288 287 287 287 287 286 285 285 284 284 284 283 283 283 283 283 283 282 282 282 282 281 281 281 281 281 281
282 281 281 281 281 280 280 279 279 280 279 279 278 280 279 279 278 279 278 279 279 280 279 278 278 278 278 278 278 279 279 279 279 279 280 281 280 280 280 280 282 283 284 285 285 285 285 285 286 287 287 288 288 288 288 287 288 288 288 288 287 287 286 285 285 284 283 283 283 283 282 282 282 282 282 282 281 281 281 281 280 280 280 280 280 280 280
282 281 281 281 280 280 280 279 279 279 280 279 279 279 279 279 279 281 280 279 279 279 279 279 280 278 278 278 278 278 278 278 279 279 279 279 278 279 279 280 282 283 284 285 285 285 285 285 285 286 287 287 287 286 287 287 288 287 287 286 286 285 285 284 283 283 283 283 283 282 282 282 282 282 282 282 281 281 280 280 280 280 279 280 279 280 280
281 282 282 282 282 280 280 280 280 281 280 280 279 279 279 279 278 279 279 279 279 279 279 279 279 279 278 277 277 277 277 278 278 278 278 279 280 280 279 279 281 282 283 284 284 285 285 285 285 285 285 286 286 286 286 287 287 286 286 286 285 285 284 283 283 283 283 283 283 282 282 282 282 282 281 281 281 280 280 280 279 279 279 279 279 279 279
282 283 283 283 282 282 281 280 280 279 279 281 280 279 279 279 279 279 279 279 279 279 279 279 278 278 278 278 277 277 277 277 277 278 278 278 279 280 280 280 281 282 282 283 283 284 284 284 284 285 285 285 285 286 286 286 286 286 286 285 285 285 284 284 283 283 283 283 283 283 283 282 282 282 281 281 281 280 280 280 279 279 279 279 279 279 279
282 283 283 283 283 282 281 281 281 282 282 280 279 280 280 280 279 279 279 279 279 278 278 278 278 278 278 278 277 278 278 278 277 277 276 277 276 278 280 281 281 281 282 282 282 283 283 283 284 284 284 284 285 285 286 286 286 285 285 285 285 284 284 284 283 283 283 283 283 283 283 283 283 282 282 281 281 280 280 280 280 280 280 280 280 279 280
282 283 283 283 283 282 283 283 283 282 281 280 279 279 280 280 279 279 279 279 279 279 278 279 278 278 278 278 278 278 278 278 278 278 278 277 277 278 280 280 279 281 281 282 281 281 282 283 283 283 283 283 284 284 284 284 285 285 285 285 284 284 284 284 284 283 283 283 283 283 283 283 282 282 282 281 281 281 282 282 282 281 281 281 281 281 282
282 282 282 283 284 284 283 282 281 280 280 279 279 279 279 279 280 280 280 280 279 279 279 278 278 278 278 279 278 278 277 277 278 278 278 279 279 280 280 281 281 281 281 280 280 280 281 282 282 282 282 282 282 282 283 283 283 283 283 283 283 283 283 283 283 283 283 283 283 283 282 282 281 281 282 282 282 282 282 282 282 282 282 282 282 282 281
283 283 283 283 283 284 282 281 281 281 281 281 280 279 279 279 279 280 279 279 279 279 279 278 279 278 278 278 278 278 278 277 274 277 278 278 278 278 279 279 279 281 281 280 281 281 282 281 281 281 281 281 281 281 281 281 281 281 281 280 280 280 280 280 280 280 281 281 281 281 281 281 281 281 280 280 279 280 281 281 281 281 281 281 281 281 281
283 284 284 284 283 282 282 282 282 282 283 281 281 281 280 280 279 279 279 279 279 279 278 278 278 278 278 279 278 278 278 278 276 276 278 278 279 278 279 280 281 280 279 279 279 279 281 281 281 281 281 280 279 279 279 279 279 279 279 279 278 278 278 278 278 279 280 280 280 280 281 281 281 280 280 279 278 278 278 279 279 278 278 279 279 280 280
284 283 282 282 283 283 283 283 283 283 282 282 282 281 279 279 279 279 279 279 279 279 278 278 278 278 278 278 278 278 278 278 278 278 278 278 278 278 279 279 279 280 280 278 279 278 280 280 280 280 279 278 278 278 278 278 278 278 277 278 277 277 278 278 279 279 278 278 279 279 279 279 280 280 280 279 278 278 277 277 277 278 278 277 275 275 276
283 283 284 284 284 285 285 285 285 284 283 283 283 282 281 280 280 280 279 279 278 278 277 278 278 278 277 277 277 278 278 278 278 279 277 278 278 279 279 279 279 279 278 278 277 275 276 277 277 278 278 278 277 277 277 277 277 277 277 276 276 276 276 277 276 277 277 277 277 277 277 277 278 278 277 277 277 276 276 276 275 274 274 272 272 271 272
285 285 286 285 285 285 285 285 285 285 284 283 282 281 281 280 280 280 279 280 279 279 278 277 277 278 277 277 278 277 278 278 278 278 279 279 278 278 279 280 277 277 277 277 276 278 277 277 279 279 278 276 276 277 278 278 277 276 276 276 277 276 276 274 274 275 275 276 276 276 276 276 277 276 276 275 275 275 275 274 273 272 272 271 271 270 269
Wind_Speed
4 3 5 3 4 3 3 4 2 3 0 3 4 0 1 4 2 6 3 2 4 0 1 3 3 2 2 3 3 2 0 0 2 3 3 3 4 4 5 6 6 7 8 7 6 6 6 6 7 6 6 6 6 5 5 4 4 3 3 4 3 2 1 3 3 3 2 3 3 0 2 1 0 2 5 5 5 5 6 5 3 1 2 3 2 3 3
3 3 4 4 8 2 4 5 4 2 3 4 4 4 2 3 3 2 8 7 4 1 3 5 4 3 2 2 2 6 7 5 2 3 4 4 4 3 3 3 3 4 5 5 4 4 4 5 5 5 5 6 6 7 5 5 5 3 5 4 3 3 1 1 1 0 1 3 2 2 1 2 3 2 5 6 8 8 7 4 3 3 4 2 2 3 4
1 2 4 5 6 6 5 4 6 4 3 7 5 3 2 5 7 4 6 9 5 3 1 4 4 3 3 10 12 7 5 7 6 4 2 1 2 3 3 3 3 3 3 2 3 4 4 5 5 5 5 4 5 6 5 5 5 4 5 5 4 4 3 2 1 1 1 1 4 6 7 8 8 8 7 6 5 4 3 3 3 3 2 1 3 4 5
0 1 3 4 6 8 8 5 7 5 4 5 3 3 3 1 5 4 7 6 2 2 6 3 6 10 13 9 8 9 7 7 7 7 5 4 3 5 5 6 6 5 4 4 3 2 1 2 4 5 5 4 5 5 5 5 4 4 5 5 5 4 2 3 3 4 3 2 2 1 2 2 2 3 4 4 3 3 3 3 3 3 4 6 5 5 5
2 1 1 3 5 3 2 2 3 1 5 6 5 4 8 5 1 3 7 4 1 2 3 6 8 10 11 11 8 7 8 8 8 9 8 7 5 5 7 7 6 6 5 4 4 4 2 1 0 1 2 4 4 4 5 3 3 5 5 4 4 3 2 3 3 3 4 4 3 3 3 3 4 4 4 4 4 3 3 1 2 2 1 1 2 2 3
2 1 3 1 1 1 3 3 2 2 2 6 11 4 4 8 4 1 2 1 2 4 5 8 7 12 8 5 4 3 4 6 8 9 8 7 6 6 7 6 7 6 7 6 5 5 4 3 3 2 2 1 1 1 2 3 5 4 5 4 4 3 3 4 3 2 2 3 4 3 2 2 3 4 4 4 2 1 1 2 2 1 1 1 0 1 2
1 1 1 2 0 4 2 5 3 6 6 13 17 8 6 6 7 6 8 8 6 3 2 4 6 6 5 6 9 11 9 7 7 8 8 7 5 6 6 7 8 8 9 10 10 10 8 6 4 5 5 3 3 4 4 5 3 4 4 5 5 4 4 4 4 4 4 4 4 2 2 1 0 3 4 3 1 1 1 1 1 1 1 1 2 2 2
2 2 3 1 3 3 1 2 2 2 1 2 11 12 8 7 5 2 4 4 3 3 3 2 0 3 3 5 9 9 9 7 6 7 6 6 6 5 3 6 5 5 8 7 7 9 8 6 8 7 5 6 4 3 3 5 4 5 5 5 5 5 5 4 4 3 5 5 4 4 3 3 3 3 2 1 1 2 2 2 2 2 3 3 3 3 3
4 3 3 1 1 1 1 1 2 2 0 2 2 7 2 3 3 3 1 4 5 5 4 3 3 3 3 8 10 9 8 8 7 5 5 4 4 4 3 2 4 1 1 4 4 2 5 5 7 7 7 7 5 2 4 4 5 5 5 5 4 3 3 3 3 3 4 5 4 4 4 5 5 5 5 5 4 1 2 4 4 3 3 3 1 2 3
6 7 3 2 1 3 5 3 4 3 3 3 2 6 1 3 4 2 2 4 4 5 4 6 3 2 8 9 6 8 9 7 8 8 7 8 7 6 5 4 3 1 3 1 0 2 3 3 0 1 2 4 5 7 3 2 4 4 4 3 2 2 1 1 1 2 3 4 4 3 4 4 3 3 2 1 2 3 4 4 2 1 3 3 3 3 3
4 3 5 3 5 4 3 4 5 5 2 3 2 6 1 1 3 2 3 6 4 4 4 5 3 4 3 1 2 6 7 8 6 7 7 7 7 7 7 6 7 7 4 1 4 3 2 1 2 1 1 2 4 5 6 2 2 3 1 0 2 4 2 3 3 3 3 2 3 3 3 1 1 2 2 1 1 2 3 3 3 2 1 3 3 3 3
2 5 4 3 1 1 2 4 5 5 2 2 2 3 5 0 1 0 3 5 4 4 4 3 8 6 3 1 3 4 7 5 3 5 7 8 8 8 8 8 6 5 5 8 10 10 9 7 5 3 3 2 2 8 8 0 2 1 3 4 6 7 4 3 4 4 3 4 4 4 3 2 1 1 0 1 2 2 3 2 3 2 2 3 3 3 3
3 6 2 2 0 1 2 4 5 8 2 4 5 8 5 2 1 1 3 4 3 3 6 3 5 1 0 2 4 5 5 6 7 6 3 3 3 5 6 6 7 6 6 5 4 5 4 5 5 4 2 2 4 6 6 4 4 6 7 6 4 5 5 4 4 4 4 5 5 3 1 1 2 1 1 1 2 2 2 2 3 3 2 2 3 3 3
2 1 5 2 0 1 5 6 4 4 1 3 5 2 2 5 3 1 3 4 2 3 4 2 1 1 2 3 3 3 3 3 3 3 4 5 5 3 4 6 5 5 5 6 7 8 7 7 5 4 0 2 4 5 5 6 8 5 3 4 3 2 3 4 5 4 4 4 4 5 4 4 3 1 1 1 3 4 4 3 3 2 2 2 3 3 3
2 3 4 4 2 1 8 8 3 5 4 1 2 4 4 2 3 3 1 2 0 1 2 0 1 2 3 3 3 4 4 4 5 6 6 6 7 8 5 6 6 4 5 5 5 5 7 5 5 4 0 3 5 5 5 9 8 5 5 3 4 3 1 1 1 2 3 4 4 3 4 4 4 4 3 4 4 4 4 3 3 2 1 1 1 1 2
2 3 1 2 1 2 7 3 4 2 1 2 4 3 2 0 2 2 2 1 0 0 0 0 2 2 3 3 2 4 3 3 3 3 3 4 5 7 7 5 5 4 4 4 4 5 5 5 5 5 4 4 5 5 8 9 6 5 4 4 3 4 4 4 4 4 3 3 3 3 5 5 4 4 4 4 4 6 5 5 5 4 2 1 1 1 1
1 1 3 3 3 1 3 4 3 1 2 2 1 5 3 2 2 0 2 1 1 1 1 1 2 3 3 4 3 2 4 5 7 7 7 5 4 5 5 7 7 6 6 5 5 5 4 5 5 5 4 4 5 5 6 4 3 2 4 4 5 4 4 4 4 3 2 1 1 1 1 3 3 3 2 2 2 2 5 5 5 5 5 4 5 5 3
6 7 5 3 1 1 3 3 1 2 2 2 4 4 4 0 0 0 1 0 1 3 1 3 4 3 4 5 6 5 5 4 5 5 6 6 5 5 4 5 6 6 6 5 5 5 6 5 5 4 4 3 5 6 5 4 2 2 1 1 3 4 4 4 4 3 3 1 1 1 1 1 3 4 4 4 4 3 5 5 5 6 5 5 6 5 6
5 2 1 1 2 0 1 3 3 3 2 1 2 3 2 1 1 0 1 1 2 3 2 2 3 5 5 5 6 5 5 5 5 6 6 6 5 6 7 6 5 6 5 6 6 5 5 5 5 5 5 6 5 6 6 5 4 3 3 3 3 3 4 3 2 2 4 3 2 1 1 1 1 2 3 4 4 4 4 6 6 5 6 6 6 5 5
2 3 1 0 1 1 1 3 2 2 1 1 0 0 1 0 0 0 0 0 0 1 1 2 2 3 3 3 4 4 4 4 4 5 5 6 5 5 5 7 7 7 7 6 7 7 7 7 5 6 6 7 7 6 6 5 4 3 4 4 5 5 4 3 3 3 3 3 3 3 1 2 3 3 2 3 5 6 6 6 6 6 6 6 7 7 6
1 2 2 2 1 3 2 3 1 0 1 1 1 2 2 2 3 3 3 2 1 1 2 1 2 3 4 3 4 4 4 5 5 5 6 5 4 4 5 6 6 7 8 9 9 9 8 7 6 6 7 8 8 7 7 6 4 4 6 5 4 4 3 3 3 1 2 2 3 2 2 1 2 3 4 4 6 6 5 4 8 9 8 7 8 8 8
0 3 2 1 3 2 3 1 1 0 1 1 1 2 3 3 2 2 2 3 2 1 1 2 2 3 3 4 4 5 5 5 6 6 6 5 5 5 4 4 4 5 6 7 9 9 8 7 7 7 7 8 8 8 7 5 4 5 5 4 4 4 4 4 4 3 3 2 2 2 2 4 3 3 2 3 3 4 6 4 7 8 6 8 9 8 8
2 5 5 4 1 1 3 2 1 2 2 2 4 3 2 1 0 1 1 2 3 3 3 2 2 3 3 5 4 5 5 5 5 5 6 6 6 7 5 5 5 5 7 7 7 8 8 6 7 7 7 8 8 8 7 5 5 5 5 5 4 4 4 5 5 4 3 3 2 2 3 3 3 4 4 2 1 2 6 8 8 9 9 9 6 10 10
1 3 4 5 3 2 1 2 2 1 1 5 4 2 1 1 1 1 2 1 1 3 2 3 2 4 4 5 5 7 7 6 6 7 6 7 7 8 7 6 6 6 7 8 8 9 8 7 7 7 8 7 6 7 5 4 4 5 5 6 7 7 6 5 4 3 3 3 3 3 4 3 5 5 6 6 4 4 6 3 5 9 11 10 9 10 7
2 2 3 4 5 2 2 1 1 0 1 4 4 2 1 1 1 1 1 1 1 1 4 4 4 3 4 5 5 6 8 8 8 9 10 10 10 9 8 7 7 7 8 8 8 7 7 7 7 7 7 8 6 6 4 4 3 4 4 4 4 4 4 3 3 3 3 3 3 3 4 4 4 5 6 6 7 4 4 8 9 4 5 9 12 14 13
4 3 1 0 1 0 1 2 3 3 3 3 3 1 1 1 0 1 1 0 2 2 3 4 4 5 3 5 5 7 8 9 10 10 9 9 9 9 10 10 9 7 8 9 10 8 6 6 6 6 7 7 6 7 4 3 3 4 4 4 4 3 3 3 3 3 3 4 3 4 4 5 5 5 6 6 6 5 4 3 6 9 10 8 9 11 11
0 2 3 1 1 2 0 2 2 2 2 2 4 2 0 0 1 0 1 1 1 2 3 3 4 4 4 4 5 6 8 10 11 10 9 10 11 10 10 11 11 10 10 10 9 7 6 5 5 5 7 7 6 7 6 3 3 2 2 1 1 1 2 3 4 3 3 3 3 4 4 5 5 5 5 5 5 5 6 6 5 5 4 5 7 8 9
1 1 2 2 3 2 0 2 5 4 3 3 3 1 0 1 2 3 3 3 4 4 4 4 4 5 6 6 5 7 8 10 10 10 10 10 10 9 9 10 11 11 10 9 8 7 7 5 5 5 7 6 5 7 5 3 2 1 2 2 1 1 0 1 1 1 1 0 0 1 2 3 3 4 4 5 5 4 2 4 7 8 6 5 5 8 12
1 0 1 2 2 2 3 4 3 3 2 1 1 1 2 2 2 2 3 3 4 4 5 6 4 4 5 6 6 7 8 10 11 13 11 9 8 8 9 10 11 11 10 10 9 7 7 6 5 5 8 5 5 5 5 3 2 2 2 2 2 1 1 1 1 2 2 2 2 2 2 1 2 4 4 5 5 5 5 6 7 6 8 8 8 8 8
1 1 2 3 4 5 6 3 3 3 2 2 1 1 1 1 2 3 3 4 4 5 6 5 6 7 5 6 6 6 8 12 12 11 10 9 9 8 9 9 11 11 10 9 9 8 8 8 6 7 8 5 5 4 5 3 3 2 3 3 3 3 2 2 3 3 3 4 4 5 4 3 2 4 5 5 6 6 7 6 7 8 8 7 6 8 9
2 2 4 4 4 4 4 3 4 4 2 0 1 1 0 1 0 3 5 4 4 5 6 6 7 8 7 6 6 6 7 9 9 9 9 8 8 8 9 9 9 9 9 9 8 7 7 7 5 7 5 3 5 4 4 3 3 3 3 3 3 3 5 6 4 3 3 4 4 5 4 4 3 4 5 6 7 7 6 6 7 7 6 6 6 6 7
4 2 3 3 4 4 3 2 3 3 2 1 1 1 2 1 3 4 4 5 5 5 6 8 8 8 7 6 5 6 7 8 8 8 8 8 8 8 8 9 9 10 11 11 10 9 9 8 8 6 4 4 4 3 4 4 3 4 4 4 3 2 3 5 3 3 2 1 3 4 3 4 4 4 5 6 7 6 6 6 6 6 6 5 5 5 4
3 0 1 2 2 2 3 1 4 4 4 4 4 3 2 3 3 4 5 5 6 6 6 8 8 7 6 5 5 6 7 7 7 8 8 9 9 9 9 8 8 9 9 8 8 8 8 9 8 5 4 4 3 4 5 4 5 4 3 3 3 2 3 3 3 2 3 3 3 3 3 4 4 4 5 6 6 5 5 5 5 5 5 5 5 4 3
5 5 5 5 6 4 4 3 3 4 3 2 2 3 3 3 3 4 5 5 6 7 8 8 8 6 5 4 4 6 7 7 6 7 9 9 10 10 10 9 8 8 7 7 7 6 6 7 6 4 4 3 4 5 5 4 4 5 4 3 4 3 3 2 2 1 3 3 3 4 4 4 4 4 4 5 5 5 5 5 4 5 5 4 4 3 3
3 4 4 4 4 3 4 5 5 4 4 3 3 4 4 3 4 5 5 5 6 6 7 7 6 4 3 2 4 6 7 8 8 9 9 9 10 11 10 10 9 6 5 4 3 5 6 6 6 5 4 3 4 5 4 5 6 5 4 4 3 3 3 2 1 1 1 1 2 3 3 4 4 4 4 5 5 5 5 5 5 5 5 5 4 4 5
2 1 0 1 3 3 4 4 4 4 4 4 4 3 4 4 4 5 6 6 5 5 5 6 5 3 1 2 5 6 9 9 9 9 9 10 11 9 9 10 9 8 6 6 6 6 6 2 6 6 4 4 5 4 5 5 6 6 5 4 4 3 3 3 2 4 3 3 4 4 3 4 4 4 4 4 5 6 6 5 5 4 4 4 5 6 6
2 4 4 3 3 4 4 4 4 3 3 4 4 4 5 5 5 6 4 5 6 5 5 5 4 4 2 1 3 5 6 6 6 7 7 8 8 8 8 9 10 9 9 8 10 9 5 2 5 7 5 4 4 6 7 11 6 5 5 4 4 4 3 3 4 4 4 3 4 4 5 5 4 4 4 5 5 5 6 5 5 5 5 5 5 6 6
3 4 4 4 4 3 4 4 3 3 3 2 3 4 5 5 6 4 5 5 5 4 4 2 2 2 1 1 3 5 6 7 7 8 8 9 9 8 8 8 8 8 8 8 10 7 5 5 7 5 4 5 5 6 9 11 8 6 4 4 4 4 4 4 4 4 4 4 4 4 4 4 5 5 5 5 6 6 6 6 6 6 5 5 5 5 6
1 1 2 2 3 3 3 1 2 2 4 4 4 4 5 5 5 4 4 4 4 2 2 1 2 2 0 1 3 3 5 6 8 8 8 8 8 6 6 7 8 8 6 8 7 7 7 7 6 7 6 5 7 8 8 9 9 6 5 5 5 4 4 4 5 5 5 4 5 5 6 6 6 6 6 6 6 6 6 7 6 6 6 5 5 5 5
4 4 5 4 4 4 3 3 3 4 5 4 4 5 5 3 2 2 2 3 3 2 0 1 2 1 1 0 2 4 5 6 6 7 8 7 6 7 7 10 12 11 11 11 9 8 11 12 9 7 6 6 5 5 5 7 7 5 5 5 5 5 4 5 5 6 5 6 6 6 7 7 6 6 6 6 6 6 6 6 6 6 6 6 6 5 6
5 4 4 4 5 4 4 4 4 5 4 3 3 5 4 3 2 0 2 3 3 2 1 1 2 1 1 1 1 2 3 5 5 7 6 6 7 7 7 8 9 9 9 8 7 7 10 8 7 6 5 5 5 6 6 8 7 6 5 5 5 5 6 6 6 5 5 6 6 6 6 6 7 7 6 7 6 6 6 6 6 6 5 6 5 5 6
5 4 4 5 4 4 4 4 2 3 5 4 4 4 4 3 3 1 1 2 2 1 2 2 2 1 0 1 1 2 4 5 5 5 6 7 7 6 8 7 8 7 10 10 9 9 8 8 8 7 6 6 6 10 10 7 6 6 6 6 6 6 6 6 6 6 5 6 6 6 6 6 7 7 6 7 6 6 6 6 6 6 5 5 5 5 5
5 5 6 6 6 5 4 4 4 5 5 6 4 4 4 4 3 2 1 2 1 1 2 2 2 2 1 2 2 3 3 4 4 5 4 3 4 4 4 4 6 6 10 8 8 7 8 7 8 7 9 8 7 10 10 7 6 7 7 7 6 7 7 6 6 5 6 6 6 6 5 6 6 6 6 6 6 5 5 6 6 5 5 5 5 5 5
6 6 6 6 6 6 5 4 4 3 3 6 5 4 3 3 3 3 3 2 1 0 3 3 2 1 1 2 2 3 4 3 4 4 4 5 5 5 5 4 4 7 11 8 7 7 7 7 7 10 14 14 13 12 8 7 7 7 7 7 7 7 6 6 6 6 6 5 5 5 5 6 6 6 6 6 6 5 5 5 5 5 5 5 5 5 4
7 7 7 8 7 5 5 5 4 6 6 3 3 3 3 4 4 3 3 2 2 1 2 3 3 2 2 2 3 2 1 1 1 2 4 5 5 6 7 6 7 6 8 9 7 7 7 6 10 14 13 15 14 12 8 7 7 7 7 7 7 6 6 6 6 6 6 6 6 5 5 5 5 5 5 5 5 5 5 5 5 4 4 4 4 4 4
6 7 7 7 7 7 7 7 6 3 2 3 3 3 3 3 4 3 3 4 3 3 3 4 4 3 3 3 1 0 1 2 2 1 2 1 2 3 5 5 5 6 9 9 6 6 6 11 13 13 13 12 11 9 7 7 7 7 7 7 7 7 6 6 6 6 6 6 5 5 5 5 5 5 4 4 4 5 4 5 4 4 4 4 4 4 3
6 5 6 7 8 7 6 5 2 2 1 1 2 4 4 3 4 4 4 4 3 3 2 3 4 4 3 4 5 3 1 1 2 2 2 3 3 4 6 6 6 8 7 7 6 5 5 7 10 13 13 13 11 7 7 7 7 7 7 6 6 6 6 5 5 5 5 5 5 5 5 5 5 5 5 4 4 4 4 4 3 3 3 3 3 4 3
7 7 7 7 8 7 5 3 4 4 4 6 5 5 4 3 3 4 2 3 3 2 2 2 3 3 3 3 3 1 3 4 2 1 2 1 2 3 4 5 5 6 7 7 8 7 11 12 12 12 12 11 8 7 7 7 7 7 6 6 6 6 5 5 5 5 5 5 5 5 4 5 5 5 4 5 4 4 4 4 4 4 3 4 4 3 3
7 8 7 6 6 5 5 5 5 5 6 5 4 4 4 3 2 2 2 3 3 3 3 2 3 4 3 3 3 3 3 2 1 1 0 1 0 2 3 3 6 6 5 5 5 5 8 11 11 11 12 9 7 7 6 6 7 6 6 6 5 5 5 5 4 4 5 5 5 5 5 5 4 5 5 4 4 4 5 5 4 4 3 3 4 4 4
6 4 4 6 6 6 7 6 7 7 6 5 6 6 3 2 1 4 4 5 6 4 4 3 3 3 4 4 4 4 3 3 1 1 2 1 1 2 3 3 3 5 5 4 4 5 6 9 9 9 8 6 6 6 6 7 7 6 5 6 6 5 6 5 5 6 5 5 6 5 5 4 4 5 5 4 4 4 5 5 5 6 6 5 5 3 3
6 7 8 8 8 8 7 8 8 7 6 7 6 5 5 5 6 4 4 6 5 5 5 4 3 3 3 3 3 3 3 2 2 3 3 3 3 3 3 3 3 3 3 3 4 3 4 4 4 5 6 5 6 6 6 6 5 6 6 5 5 5 5 6 5 5 5 4 5 4 4 5 5 5 4 4 5 5 5 5 5 4 4 4 4 4 4
9 9 9 8 7 7 7 7 6 5 5 6 6 5 6 6 6 4 3 6 7 7 6 6 5 5 4 4 4 4 3 3 2 2 3 3 3 3 2 3 3 3 3 3 2 4 3 4 4 5 5 5 4 5 5 6 6 6 5 5 5 5 5 5 5 4 4 4 4 5 5 4 5 6 5 4 4 5 4 4 4 4 4 4 4 4 4
Wind_Direction
45 85 113 133 98 101 143 133 129 78 26 82 96 207 114 119 152 190 200 128 101 325 356 325 311 317 277 334 340 323 278 343 95 105 117 130 144 156 152 153 151 150 154 159 153 145 139 128 118 117 106 96 86 74 73 73 83 91 122 122 118 116 121 131 147 148 124 88 86 353 351 37 83 120 145 196 223 226 212 217 210 187 212 232 209 205 215
60 44 86 122 110 103 57 29 24 9 50 62 80 63 25 117 130 150 116 92 69 357 331 330 332 327 53 46 9 26 27 351 328 123 134 137 138 159 173 169 169 162 150 147 140 129 125 123 118 109 105 105 105 101 93 91 86 87 93 83 83 63 44 322 303 288 110 104 115 102 108 232 232 190 173 197 203 208 213 202 187 176 177 187 196 223 232
44 350 11 60 100 112 88 35 37 43 78 69 46 76 41 58 70 87 97 82 43 346 355 8 352 13 58 47 33 17 9 13 9 25 16 29 108 100 87 68 58 60 54 55 107 127 137 131 127 120 120 118 110 109 110 100 102 117 101 100 94 95 57 359 19 103 118 150 162 168 178 176 177 171 180 174 171 184 192 193 204 202 170 167 199 218 219
251 350 63 70 72 84 87 41 16 13 39 67 351 52 317 153 162 161 100 78 63 324 355 359 31 48 48 46 27 25 16 15 25 28 8 358 59 79 58 59 57 57 66 70 60 49 64 124 134 132 128 129 110 120 120 113 130 122 100 105 100 85 66 33 44 70 81 81 61 43 77 59 77 132 139 141 149 172 184 209 221 161 177 194 192 198 207
248 277 18 150 87 51 14 335 312 17 80 119 117 67 35 30 107 81 126 193 243 263 307 59 38 52 47 39 23 14 19 24 39 43 37 30 34 66 71 60 60 58 61 63 83 84 71 1 339 145 108 113 122 136 113 149 117 81 82 91 92 75 42 62 57 69 75 82 80 76 68 73 88 86 83 79 70 72 66 118 106 125 191 143 192 207 198
239 304 316 7 61 183 232 251 273 215 170 143 86 40 4 360 44 122 166 125 9 41 38 73 70 61 48 49 30 52 46 25 34 40 41 43 47 44 58 63 54 46 30 18 35 55 48 27 4 328 334 88 106 30 64 37 68 56 75 49 64 59 51 51 57 55 104 88 73 55 33 53 78 80 84 92 82 29 70 90 94 112 75 85 295 199 208
177 334 12 47 289 237 338 357 88 102 108 100 99 85 50 17 21 42 45 33 26 343 7 80 91 89 78 52 43 29 26 37 44 47 41 36 40 47 49 51 51 43 27 14 12 17 17 22 28 12 16 25 76 62 67 70 53 77 65 69 50 49 59 44 42 40 69 71 87 74 71 44 355 118 119 125 90 45 73 80 89 68 360 20 16 12 357
69 58 46 130 251 193 164 308 35 142 88 64 77 50 16 20 14 343 53 17 9 17 16 340 332 84 43 51 45 28 12 28 39 38 30 26 38 51 61 79 50 47 74 62 17 351 336 8 14 28 13 337 48 49 58 96 77 74 79 69 55 54 66 54 55 54 75 74 66 56 45 57 55 25 13 72 133 169 111 66 51 66 48 56 33 7 349
161 191 120 191 134 116 265 352 5 53 81 357 127 119 4 11 351 27 16 25 24 24 4 336 324 336 358 47 21 8 11 357 6 29 20 20 18 26 23 106 122 215 182 141 130 92 320 346 8 0 352 7 342 19 57 51 70 53 60 57 39 60 68 39 40 49 75 78 70 62 64 55 31 16 6 350 349 9 82 105 110 112 109 94 74 46 25
118 125 85 60 117 187 239 234 269 294 251 273 187 111 50 348 5 5 74 65 28 26 10 9 334 43 50 33 350 344 349 354 356 2 13 10 11 18 8 20 36 53 107 106 121 155 212 262 308 337 9 347 6 352 9 25 72 60 66 17 356 345 67 83 69 84 71 77 74 66 63 58 35 2 338 320 343 21 26 22 52 107 140 105 61 55 62
86 92 135 187 166 239 210 263 269 284 258 250 131 65 88 32 8 331 105 74 57 54 45 353 31 76 73 313 299 317 343 340 354 357 1 3 2 5 9 1 355 343 328 243 166 163 178 227 249 175 358 358 16 320 307 336 46 74 51 14 17 300 227 180 161 169 156 135 131 122 105 117 126 63 44 14 326 36 62 86 92 47 29 70 71 41 32
171 149 131 188 173 192 264 254 283 294 296 157 87 102 243 237 341 359 86 82 71 52 42 35 55 67 119 307 309 332 328 323 321 14 358 358 358 1 359 4 1 348 3 9 2 359 356 341 325 284 211 193 304 288 272 168 82 355 286 224 216 213 219 190 174 167 173 154 151 142 147 165 196 173 167 33 29 68 52 81 107 66 63 62 62 34 10
76 93 89 64 343 292 318 297 299 326 287 138 139 205 215 182 156 98 107 93 99 85 68 43 89 356 313 294 296 315 314 349 0 0 1 334 337 353 356 349 346 9 3 13 357 334 326 324 320 309 269 207 215 246 267 276 236 206 205 237 233 208 199 195 182 183 180 158 159 180 164 140 128 94 83 43 49 83 99 76 79 63 52 57 72 39 14
45 100 95 139 177 244 338 306 3 317 58 176 207 211 170 138 140 188 114 99 82 88 89 101 117 253 267 265 277 309 339 336 290 319 332 344 347 357 345 333 355 2 354 350 348 348 344 339 341 3 119 217 244 263 273 260 242 235 230 231 232 229 221 201 187 174 167 184 180 162 167 138 110 83 70 117 128 115 105 107 94 75 59 51 64 40 11
46 33 86 96 172 325 349 301 21 7 104 229 49 54 26 75 137 127 78 99 109 122 49 245 237 261 294 290 307 317 315 332 341 334 339 342 333 331 338 333 339 355 345 339 329 317 319 330 342 353 86 224 243 240 233 244 248 253 245 208 195 191 218 255 248 219 204 178 171 154 141 143 131 136 137 105 111 114 110 100 102 101 79 56 59 46 20
112 54 104 162 69 309 325 51 119 359 51 93 164 135 103 329 146 121 103 8 262 214 137 312 304 255 287 309 313 323 308 314 314 300 291 305 315 323 322 314 300 317 308 300 302 305 310 325 341 352 8 312 288 282 258 249 243 238 227 213 181 174 180 196 218 230 225 206 168 156 152 152 146 150 155 142 134 144 140 135 135 141 151 118 110 146 157
121 167 126 126 199 262 337 51 84 92 359 19 90 101 120 108 21 22 93 18 331 242 252 273 279 297 297 292 293 290 294 308 316 321 318 315 302 298 300 303 310 313 297 291 293 300 299 315 328 336 0 352 316 290 275 300 275 249 219 177 160 169 186 201 206 194 168 166 170 142 176 144 137 152 160 150 165 164 136 140 151 166 192 178 190 198 189
83 59 71 119 70 42 27 25 55 102 58 26 82 103 94 60 225 166 141 262 271 310 309 5 321 308 304 317 311 310 307 305 294 299 310 317 321 315 312 313 316 307 306 300 296 294 303 305 314 318 322 344 328 296 290 296 245 243 230 167 186 196 192 186 186 170 164 139 61 75 107 173 173 177 185 177 199 203 161 167 170 175 184 188 203 198 208
73 126 35 80 158 56 72 99 51 35 74 103 127 100 131 176 228 314 306 255 296 289 316 299 273 285 296 299 296 298 302 306 305 308 308 307 308 314 318 311 318 319 319 309 301 296 297 297 304 304 307 302 275 280 288 279 288 268 223 210 224 225 205 189 171 162 169 181 169 113 104 128 151 190 180 183 187 210 204 183 181 187 178 183 192 197 205
121 203 209 262 242 184 189 177 124 125 148 140 247 181 167 171 33 200 308 243 26 45 4 331 305 282 295 297 293 298 293 290 291 290 292 297 310 310 310 311 317 314 307 296 292 288 282 282 289 291 292 287 283 277 272 271 244 222 227 210 205 211 208 189 183 176 180 187 188 200 222 185 198 223 239 193 188 202 198 194 183 192 184 185 192 193 188
328 338 304 321 38 329 330 15 14 203 184 116 343 15 46 44 49 4 359 57 27 64 25 6 22 353 321 311 301 303 302 304 305 303 301 299 296 301 317 316 319 313 308 304 295 288 279 275 276 279 276 275 276 266 260 262 236 207 225 221 209 194 182 160 182 179 175 178 184 193 214 291 259 219 222 217 218 244 241 200 186 179 188 199 199 198 178
344 192 223 125 121 255 268 277 257 283 256 177 79 69 61 47 49 3 26 351 2 45 28 12 2 340 309 309 317 309 299 296 297 305 305 303 306 304 293 297 307 312 314 310 305 299 292 290 286 278 276 275 274 268 258 248 205 203 208 188 173 186 181 184 195 190 205 213 217 209 211 228 257 285 246 236 215 223 269 266 253 258 193 191 198 183 181
224 243 238 196 161 220 230 197 270 253 255 146 110 112 128 104 204 183 115 25 350 8 341 338 349 323 308 305 304 299 295 286 279 279 285 291 295 292 294 299 304 309 308 310 308 305 299 298 292 285 279 275 274 270 255 240 196 192 176 184 195 200 200 214 211 205 206 231 239 229 232 230 231 243 270 289 284 228 234 255 251 246 239 243 212 185 176
253 212 217 178 152 208 213 229 222 249 208 121 111 119 130 134 131 123 103 112 45 329 327 319 320 313 312 310 315 305 303 297 300 298 289 280 278 283 277 272 282 291 294 297 299 301 303 303 301 301 296 288 280 276 263 249 223 182 182 178 196 211 212 221 212 210 209 216 224 226 248 234 229 229 231 235 262 352 17 348 265 230 221 206 179 166 160
189 190 184 181 189 216 211 205 105 68 99 128 114 105 93 82 13 124 98 28 320 333 332 325 315 322 323 318 316 312 310 308 307 305 306 304 300 296 295 297 295 294 290 285 280 283 289 293 302 305 305 304 310 299 271 250 212 173 182 183 204 224 222 221 220 226 217 218 219 208 225 226 236 224 220 221 223 252 350 38 49 48 190 171 161 162 154
137 165 175 96 108 120 327 99 45 58 66 93 96 51 11 47 102 60 5 251 347 333 342 319 321 314 322 313 312 308 308 305 305 306 302 301 302 303 301 297 293 291 288 285 278 270 269 280 292 300 304 306 324 315 293 270 239 191 189 201 206 199 203 204 201 221 217 217 219 223 217 214 215 208 212 209 211 188 140 77 50 46 49 76 113 121 123
86 139 106 33 348 314 338 218 213 174 143 121 120 138 148 258 344 23 352 342 342 330 318 296 300 302 309 295 295 299 301 301 299 296 295 296 295 293 292 291 286 281 276 274 269 261 267 280 290 296 297 302 322 318 298 275 230 156 147 133 114 184 211 200 196 216 219 214 218 230 223 221 216 208 208 205 189 185 177 157 139 120 123 69 65 92 123
200 219 133 166 216 222 257 141 147 161 161 153 149 123 149 47 38 26 356 329 319 313 309 302 306 309 302 296 304 308 308 307 308 303 299 295 294 288 286 287 288 288 285 281 277 276 277 278 281 288 287 298 320 330 316 290 251 147 125 119 124 134 236 186 166 173 166 195 225 218 234 228 216 200 179 166 163 172 172 132 128 124 91 73 89 87 94
225 285 228 172 183 174 136 122 119 134 185 204 180 200 67 34 320 335 313 300 297 312 307 302 292 281 278 287 292 295 303 304 306 308 303 298 298 296 293 290 286 283 279 278 274 268 268 271 273 279 280 293 319 333 328 309 244 158 144 140 133 115 88 101 112 92 66 56 39 38 46 82 127 133 135 136 133 129 127 125 116 107 110 117 109 88 69
264 246 123 107 112 124 123 141 170 196 214 205 148 39 54 83 346 307 295 299 307 302 287 289 296 293 288 290 284 290 303 309 304 302 301 297 292 290 288 287 286 281 274 262 263 266 268 265 260 264 271 293 307 319 324 306 248 184 161 157 147 145 139 122 93 77 68 52 40 39 39 53 87 114 121 125 127 126 123 120 119 117 115 111 109 119 123
236 216 150 139 130 121 134 185 194 209 209 121 149 133 351 79 279 294 289 290 298 288 289 289 290 292 293 281 279 287 295 298 295 292 291 291 289 288 287 286 285 280 276 273 267 262 256 252 245 254 265 281 289 301 304 284 231 162 126 131 138 115 104 94 92 90 75 58 53 57 50 51 66 96 109 114 112 106 106 108 106 105 107 116 127 130 133
137 128 148 167 173 171 211 174 159 190 183 181 151 207 220 195 272 277 282 287 276 277 288 295 293 290 289 290 289 295 301 298 291 290 291 293 295 295 292 286 275 270 270 268 264 260 257 256 250 243 234 244 259 269 266 246 218 164 157 154 132 98 107 114 94 69 43 65 91 95 82 69 58 76 90 94 96 101 101 102 107 114 127 130 130 124 134
139 136 296 255 263 221 207 173 159 190 193 210 227 226 226 218 232 253 260 265 284 289 287 283 284 287 299 301 299 306 306 306 305 305 308 309 308 306 303 295 283 273 265 260 255 251 248 246 246 233 218 220 231 251 251 220 196 165 157 128 101 85 89 97 84 51 15 3 23 75 104 98 94 76 83 87 92 96 99 104 113 116 115 113 103 105 113
178 201 211 201 180 194 203 204 201 202 219 223 233 239 234 242 239 255 271 278 277 282 282 283 290 306 314 313 311 317 319 319 320 317 315 314 314 315 315 309 301 288 274 265 259 254 245 241 235 218 211 206 224 245 241 190 161 140 141 121 102 105 106 94 72 24 17 14 5 50 79 93 95 104 103 104 106 105 107 107 103 102 95 80 69 64 74
186 213 201 201 195 185 171 171 187 201 197 216 255 253 247 254 259 261 267 276 276 273 286 295 299 317 315 317 332 331 330 324 316 314 315 318 320 320 320 318 317 319 319 295 277 274 260 241 219 201 192 204 223 239 194 153 134 126 113 99 103 116 123 116 90 28 44 32 42 60 68 81 79 84 97 101 99 99 94 86 83 85 86 81 64 67 82
177 175 293 207 204 176 176 179 187 188 184 209 222 230 253 256 265 275 275 271 279 293 299 301 306 327 4 15 343 336 327 322 321 320 322 326 325 319 324 329 331 338 341 344 356 340 313 198 170 166 168 186 219 179 141 133 112 106 99 100 97 93 89 84 86 68 46 54 57 59 66 85 92 87 81 78 74 76 82 81 80 82 95 103 110 105 103
188 178 189 195 196 171 168 179 183 177 203 218 230 249 260 268 259 262 270 284 293 297 306 308 321 339 305 256 313 315 317 321 322 321 323 326 327 328 334 342 358 356 359 5 343 336 344 100 151 163 182 193 153 133 130 108 95 100 101 98 96 94 99 95 74 70 58 48 67 79 84 77 69 73 82 87 87 84 89 96 97 93 95 100 102 106 104
208 187 178 191 185 182 184 198 184 182 203 257 267 243 245 261 273 276 287 289 294 294 302 295 299 305 281 263 318 327 326 331 333 330 338 340 339 335 350 358 352 349 360 343 327 336 0 67 108 121 102 109 118 117 102 101 104 101 95 93 88 85 79 73 74 68 69 57 52 60 66 75 85 82 77 80 86 90 93 90 91 94 90 85 85 88 94
155 127 152 167 160 184 191 196 173 207 199 216 251 276 270 257 266 281 285 286 284 295 324 354 20 32 14 305 316 326 339 342 340 340 344 344 340 355 5 11 4 356 335 328 339 7 21 36 66 68 72 84 90 85 91 90 93 93 94 91 89 85 87 84 83 73 65 64 65 63 65 68 71 79 81 81 84 84 79 84 89 89 87 87 88 90 88
191 178 182 176 188 211 212 231 229 234 233 214 224 258 276 292 277 256 279 309 326 353 356 74 48 15 358 306 311 346 348 344 338 343 345 339 349 6 13 17 7 358 356 360 8 15 22 33 45 55 57 60 74 87 78 85 86 85 89 92 94 88 85 83 81 79 73 74 74 71 73 72 72 72 77 79 79 78 83 82 82 83 86 81 81 85 90
200 190 189 185 202 201 212 222 243 251 259 264 240 249 253 245 226 343 335 313 308 349 46 115 97 38 6 315 308 330 345 343 348 353 347 357 14 13 24 18 352 353 358 5 14 22 30 34 33 44 40 57 69 84 85 77 79 81 80 83 79 81 79 75 75 74 77 78 75 77 82 87 84 78 77 77 76 75 75 75 74 69 72 82 82 81 83
214 197 189 200 210 213 224 225 249 304 289 270 260 250 252 227 189 223 257 312 360 32 81 72 98 105 75 45 35 20 12 351 346 346 2 19 14 3 23 9 350 352 358 14 23 30 30 32 30 39 41 59 62 78 84 79 77 79 80 75 73 70 75 75 75 77 76 78 79 80 79 80 86 86 81 82 79 76 76 77 76 73 71 73 77 78 86
203 193 198 205 213 216 222 223 222 236 260 278 270 254 230 218 220 239 306 327 19 79 109 100 67 55 59 49 49 44 18 352 352 344 344 357 15 23 16 323 331 355 13 30 28 37 34 33 36 39 50 59 69 73 76 75 80 81 79 76 73 72 73 74 76 74 74 80 81 80 81 85 86 89 87 83 83 80 79 79 80 80 77 77 80 79 76
203 199 199 203 213 217 213 216 231 241 260 271 260 233 220 226 205 195 215 247 312 113 143 142 124 102 82 72 64 50 21 3 358 338 357 355 7 16 9 349 349 13 26 32 34 38 37 38 38 47 50 56 59 63 65 67 72 73 76 78 77 73 73 71 71 73 73 73 76 79 81 80 82 83 88 90 88 84 81 80 81 82 84 82 82 81 81
203 201 202 205 211 206 209 213 213 226 231 240 264 234 208 228 231 203 185 195 222 219 161 151 153 142 120 104 96 79 54 12 15 15 37 14 24 3 346 356 13 23 25 34 38 42 43 43 52 54 57 55 56 56 59 60 65 69 73 74 74 74 73 72 67 67 69 71 69 69 69 73 78 82 85 85 88 89 91 90 89 85 85 84 82 80 75
209 210 206 205 209 214 216 212 221 213 257 285 281 275 243 229 240 214 184 187 199 219 202 178 167 175 169 154 167 10 345 352 354 33 103 109 68 316 331 8 19 26 38 40 36 37 47 50 56 58 59 60 61 62 60 59 64 68 71 72 73 75 75 75 72 71 69 71 70 69 70 75 76 78 80 87 89 92 92 92 85 77 73 73 76 83 81
210 207 206 208 215 218 218 217 193 162 150 157 220 257 259 229 234 231 208 195 195 195 184 179 181 186 189 172 160 145 112 34 358 339 6 2 14 9 7 17 25 32 37 42 40 39 46 54 58 60 62 61 62 65 63 64 65 68 68 70 68 71 70 70 71 76 77 79 81 88 90 90 93 90 86 80 79 81 87 90 95 93 91 87 82 79 75
204 208 210 207 213 218 210 183 159 175 182 200 207 223 242 240 237 241 213 181 183 170 165 179 179 187 201 212 218 221 174 140 75 341 325 342 344 16 18 21 24 37 38 40 42 41 50 60 62 64 64 65 63 64 64 62 64 65 66 64 66 64 65 67 67 69 71 68 70 75 81 85 86 86 86 86 85 83 81 82 85 84 81 81 80 72 74
209 211 209 204 207 205 199 198 199 205 213 206 195 226 231 229 244 222 187 178 167 172 184 198 184 191 206 212 213 229 216 193 142 180 235 172 341 24 12 18 35 41 41 41 43 38 48 58 62 64 65 66 66 66 67 66 66 66 65 65 63 58 58 58 55 56 62 60 58 59 57 66 77 83 82 78 77 78 83 80 73 73 74 73 70 73 73
216 207 209 209 209 210 206 205 214 219 208 184 202 215 194 146 213 252 199 183 188 180 184 207 216 198 193 204 214 224 226 228 219 101 88 110 98 77 54 44 46 53 52 49 46 44 42 50 54 58 64 66 68 68 70 71 69 67 70 67 66 62 60 64 61 57 58 61 62 64 67 71 80 86 87 86 84 83 83 84 80 73 71 70 73 71 69
202 201 213 213 212 213 205 202 213 207 196 196 202 191 163 167 205 216 185 171 154 166 194 214 241 225 202 211 215 218 221 208 130 111 115 114 121 97 81 61 53 60 58 55 52 50 50 54 57 59 62 67 71 73 73 76 76 75 74 73 71 70 65 58 62 61 57 64 75 73 80 90 95 93 90 90 89 85 82 80 76 69 66 62 59 55 51
205 206 211 208 207 209 210 218 223 210 195 185 183 179 185 192 201 205 177 173 174 184 181 174 214 237 204 203 201 212 208 197 140 110 130 129 124 124 101 79 74 63 66 70 61 57 60 67 68 71 75 75 75 75 74 75 76 77 74 73 72 69 65 64 66 71 64 61 76 82 76 82 97 96 89 84 88 90 89 86 82 73 70 61 56 57 55